| time (UTC) | temp F | wind direction | speed knots | gust knots | rain 1hr in | rain 24hr in | rain mn in | humidity % | barometer mb |
| 20260504034616 | 59 | 179 | 0.0 | 2.6 | 0.00 | 0.01 | 0.01 | 63 | 1003.9 |
| 20260504033103 | 59 | 0 | 0.0 | 2.6 | 0.00 | 0.01 | 0.01 | 62 | 1004.2 |
| 20260504031604 | 60 | 174 | 0.0 | 3.5 | 0.00 | 0.01 | 0.01 | 61 | 1004.2 |
| 20260504030054 | 60 | 161 | 0.0 | 3.5 | 0.00 | 0.01 | 0.01 | 61 | 1004.3 |
| 20260504024557 | 60 | 0 | 0.0 | 1.7 | 0.00 | 0.01 | 0.01 | 60 | 1004.3 |
| 20260504023057 | 61 | 138 | 0.0 | 3.5 | 0.00 | 0.01 | 0.01 | 59 | 1004.2 |
| 20260504021556 | 61 | 0 | 0.0 | 4.3 | 0.00 | 0.01 | 0.01 | 58 | 1004.2 |
| 20260504020104 | 62 | 0 | 0.0 | 1.7 | 0.00 | 0.01 | 0.01 | 57 | 1004.0 |
| 20260504014600 | 62 | 0 | 0.0 | 2.6 | 0.00 | 0.01 | 0.01 | 56 | 1004.0 |
| 20260504013105 | 63 | 0 | 0.0 | 5.2 | 0.00 | 0.01 | 0.01 | 54 | 1003.7 |
| 20260504011554 | 64 | 0 | 0.0 | 1.7 | 0.00 | 0.01 | 0.01 | 53 | 1003.5 |
| 20260504010052 | 64 | 0 | 0.0 | 4.3 | 0.00 | 0.01 | 0.01 | 51 | 1003.5 |
| 20260504004548 | 66 | 0 | 0.9 | 3.5 | 0.00 | 0.01 | 0.01 | 49 | 1003.6 |
| 20260504003048 | 66 | 0 | 0.0 | 5.2 | 0.00 | 0.01 | 0.01 | 48 | 1003.7 |
| 20260504001556 | 68 | 278 | 0.0 | 2.6 | 0.00 | 0.01 | 0.01 | 46 | 1003.7 |
| 20260504000057 | 68 | 0 | 1.7 | 8.7 | 0.00 | 0.01 | 0.01 | 44 | 1003.5 |
| 20260503234555 | 69 | 274 | 1.7 | 7.0 | 0.00 | 0.01 | 0.01 | 42 | 1003.7 |
| 20260503233051 | 70 | 0 | 0.9 | 7.0 | 0.00 | 0.01 | 0.01 | 42 | 1003.6 |
| 20260503231552 | 70 | 243 | 0.0 | 4.3 | 0.00 | 0.01 | 0.01 | 42 | 1003.6 |
| 20260503230106 | 68 | 216 | 0.0 | 6.1 | 0.00 | 0.01 | 0.01 | 43 | 1004.0 |
| 20260503224558 | 69 | 159 | 0.9 | 6.1 | 0.00 | 0.01 | 0.01 | 42 | 1004.1 |
| 20260503223050 | 68 | 291 | 0.9 | 6.1 | 0.00 | 0.01 | 0.01 | 43 | 1004.3 |
| 20260503221602 | 67 | 285 | 1.7 | 9.6 | 0.00 | 0.01 | 0.01 | 43 | 1004.5 |
| 20260503220057 | 67 | 139 | 0.9 | 7.0 | 0.00 | 0.01 | 0.01 | 44 | 1004.6 |
| 20260503214550 | 66 | 75 | 1.7 | 7.8 | 0.00 | 0.01 | 0.01 | 43 | 1004.7 |
| 20260503213102 | 66 | 15 | 2.6 | 8.7 | 0.00 | 0.01 | 0.01 | 43 | 1004.9 |
| 20260503211610 | 66 | 47 | 1.7 | 11.3 | 0.00 | 0.01 | 0.01 | 42 | 1005.2 |
| 20260503210057 | 65 | 169 | 4.3 | 10.4 | 0.00 | 0.01 | 0.01 | 42 | 1005.5 |
| 20260503204553 | 64 | 230 | 3.5 | 12.2 | 0.00 | 0.01 | 0.01 | 42 | 1005.8 |
| 20260503203057 | 64 | 245 | 1.7 | 9.6 | 0.00 | 0.01 | 0.01 | 42 | 1006.1 |
| 20260503201554 | 65 | 43 | 2.6 | 10.4 | 0.00 | 0.01 | 0.01 | 43 | 1006.2 |
| 20260503200058 | 64 | 108 | 2.6 | 10.4 | 0.00 | 0.01 | 0.01 | 46 | 1006.4 |
| 20260503194602 | 63 | 243 | 2.6 | 14.8 | 0.00 | 0.01 | 0.01 | 46 | 1006.6 |
| 20260503193101 | 62 | 339 | 1.7 | 10.4 | 0.00 | 0.01 | 0.01 | 51 | 1006.6 |
| 20260503191555 | 60 | 217 | 1.7 | 9.6 | 0.00 | 0.01 | 0.01 | 56 | 1006.9 |
| 20260503190056 | 59 | 207 | 3.5 | 15.6 | 0.00 | 0.01 | 0.01 | 58 | 1007.3 |
| 20260503184601 | 58 | 217 | 1.7 | 8.7 | 0.00 | 0.01 | 0.01 | 60 | 1007.6 |
| 20260503183052 | 55 | 207 | 2.6 | 8.7 | 0.01 | 0.01 | 0.01 | 65 | 1007.9 |
| 20260503181610 | 54 | 108 | 2.6 | 8.7 | 0.01 | 0.01 | 0.01 | 65 | 1008.2 |
| 20260503180112 | 53 | 214 | 0.9 | 5.2 | 0.01 | 0.01 | 0.01 | 71 | 1008.6 |
| 20260503174556 | 52 | 176 | 0.9 | 6.1 | 0.01 | 0.01 | 0.01 | 72 | 1009.8 |
| 20260503173102 | 52 | 155 | 1.7 | 7.0 | 0.00 | 0.00 | 0.00 | 73 | 1010.0 |
| 20260503171552 | 51 | 169 | 1.7 | 6.1 | 0.00 | 0.00 | 0.00 | 73 | 1010.4 |
| 20260503150108 | 54 | 250 | 0.9 | 6.1 | 0.00 | 0.00 | 0.00 | 57 | 1011.3 |
| 20260503081553 | 46 | 0 | 0.0 | 3.5 | 0.00 | 0.00 | 0.00 | 58 | 1012.5 |
| 20260503080105 | 46 | 0 | 0.0 | 2.6 | 0.00 | 0.00 | 0.00 | 58 | 1012.5 |
| 20260503071557 | 46 | 0 | 0.0 | 0.9 | 0.00 | 0.00 | 0.00 | 56 | 1012.8 |
| 20260503054548 | 46 | 0 | 0.0 | 1.7 | 0.00 | 0.00 | 0.00 | 57 | 1013.5 |
| 20260503053052 | 46 | 0 | 0.0 | 2.6 | 0.00 | 0.00 | 0.00 | 56 | 1013.6 |
| 20260503051550 | 46 | 0 | 0.0 | 1.7 | 0.00 | 0.00 | 0.00 | 57 | 1013.7 |
| 20260503050057 | 46 | 0 | 0.0 | 0.9 | 0.00 | 0.00 | 0.00 | 58 | 1013.7 |
| 20260503044606 | 46 | 0 | 0.0 | 1.7 | 0.00 | 0.00 | 0.00 | 57 | 1013.8 |
| 20260503043052 | 46 | 0 | 0.0 | 1.7 | 0.00 | 0.00 | 0.00 | 56 | 1013.8 |
| 20260503041553 | 46 | 0 | 0.0 | 0.9 | 0.00 | 0.00 | 0.00 | 56 | 1013.9 |